Location: Unspecified
(0.0000°N, 0.0000°E)
Time: 02:47:25
(UTC+00:00)

Tiros 1 despin weight - Pass Details

Date: 17 December 2018
Orbit: 594 x 643 km, 48.2° (Epoch: 19 March)

Event Time Altitude Azimuth Distance (km) Brightness Sun altitude
Rises 19:13:09 0° 200° (SSW) 2,829 ? -17.6°
Reaches altitude 10° 19:15:42 10° 188° (S) 1,923 ? -18.2°
Maximum altitude 19:19:28 27° 129° (SE) 1,136 ? -19.0°
Enters shadow 19:19:51 27° 120° (ESE) 1,147 ? -19.1°
